Year,Month,Day,Hour,Minute,Value (Times are PST for windgust in km/hr)
2014,10,20,00,00,3.20
2014,10,20,00,01,4.80
2014,10,20,00,02,4.80
2014,10,20,00,03,6.40
2014,10,20,00,04,6.40
2014,10,20,00,05,6.40
2014,10,20,00,06,4.80
2014,10,20,00,07,4.80
2014,10,20,00,08,4.80
2014,10,20,00,09,3.20
2014,10,20,00,10,6.40
2014,10,20,00,11,6.40
2014,10,20,00,12,3.20
2014,10,20,00,13,3.20
2014,10,20,00,14,4.80
2014,10,20,00,15,3.20
2014,10,20,00,16,6.40
2014,10,20,00,17,4.80
2014,10,20,00,18,6.40
2014,10,20,00,19,8.10
2014,10,20,00,20,8.10
2014,10,20,00,21,6.40
2014,10,20,00,22,8.10
2014,10,20,00,23,11.30
2014,10,20,00,24,9.60
2014,10,20,00,25,11.30
2014,10,20,00,26,11.30
2014,10,20,00,27,8.10
2014,10,20,00,28,16.10
2014,10,20,00,29,12.90
2014,10,20,00,30,6.40
2014,10,20,00,31,9.60
2014,10,20,00,32,8.10
2014,10,20,00,33,6.40
2014,10,20,00,34,8.10
2014,10,20,00,35,1.60
2014,10,20,00,36,6.40
2014,10,20,00,37,8.10
2014,10,20,00,38,4.80
2014,10,20,00,39,6.40
2014,10,20,00,40,4.80
2014,10,20,00,41,4.80
2014,10,20,00,42,6.40
2014,10,20,00,43,6.40
2014,10,20,00,44,6.40
2014,10,20,00,45,8.10
2014,10,20,00,46,8.10
2014,10,20,00,47,9.60
2014,10,20,00,48,4.80
2014,10,20,00,49,3.20
2014,10,20,00,50,4.80
2014,10,20,00,51,6.40
2014,10,20,00,52,3.20
2014,10,20,00,53,3.20
2014,10,20,00,55,3.20
2014,10,20,00,56,3.20
2014,10,20,00,57,3.20
2014,10,20,00,58,1.60
2014,10,20,00,59,1.60
2014,10,20,01,01,3.20
2014,10,20,01,02,3.20
2014,10,20,01,03,4.80
2014,10,20,01,04,4.80
2014,10,20,01,05,6.40
2014,10,20,01,06,6.40
2014,10,20,01,07,11.30
2014,10,20,01,08,9.60
2014,10,20,01,09,9.60
2014,10,20,01,10,9.60
2014,10,20,01,11,11.30
2014,10,20,01,12,11.30
2014,10,20,01,13,9.60
2014,10,20,01,14,9.60
2014,10,20,01,15,8.10
2014,10,20,01,16,11.30
2014,10,20,01,17,11.30
2014,10,20,01,18,11.30
2014,10,20,01,19,6.40
2014,10,20,01,20,6.40
2014,10,20,01,21,6.40
2014,10,20,01,22,1.60
2014,10,20,01,24,3.20
2014,10,20,01,25,1.60
2014,10,20,01,30,1.60
2014,10,20,01,32,1.60
2014,10,20,01,33,1.60
2014,10,20,01,34,1.60
2014,10,20,01,47,1.60
2014,10,20,01,48,1.60
2014,10,20,01,49,1.60
2014,10,20,01,50,3.20
2014,10,20,01,55,1.60
2014,10,20,01,56,1.60
2014,10,20,01,57,1.60
2014,10,20,01,59,1.60
2014,10,20,02,00,1.60
2014,10,20,02,01,1.60
2014,10,20,02,03,1.60
2014,10,20,02,05,3.20
2014,10,20,02,06,1.60
2014,10,20,02,07,1.60
2014,10,20,02,08,3.20
2014,10,20,02,09,3.20
2014,10,20,02,10,1.60
2014,10,20,02,11,3.20
2014,10,20,02,12,1.60
2014,10,20,02,13,1.60
2014,10,20,02,15,1.60
2014,10,20,02,18,1.60
2014,10,20,02,28,3.20
2014,10,20,02,29,1.60
2014,10,20,02,30,3.20
2014,10,20,02,32,1.60
2014,10,20,02,53,1.60
2014,10,20,02,54,3.20
2014,10,20,02,55,1.60
2014,10,20,02,56,3.20
2014,10,20,02,59,1.60
2014,10,20,03,01,1.60
2014,10,20,03,02,1.60
2014,10,20,03,03,3.20
2014,10,20,03,04,3.20
2014,10,20,03,05,1.60
2014,10,20,03,06,1.60
2014,10,20,03,07,3.20
2014,10,20,03,09,3.20
2014,10,20,03,10,1.60
2014,10,20,03,11,6.40
2014,10,20,03,12,6.40
2014,10,20,03,13,6.40
2014,10,20,03,14,3.20
2014,10,20,03,15,1.60
2014,10,20,03,17,3.20
2014,10,20,03,18,8.10
2014,10,20,03,19,8.10
2014,10,20,03,20,6.40
2014,10,20,03,21,8.10
2014,10,20,03,22,3.20
2014,10,20,03,23,6.40
2014,10,20,03,24,3.20
2014,10,20,03,25,1.60
2014,10,20,03,26,6.40
2014,10,20,03,27,8.10
2014,10,20,03,28,8.10
2014,10,20,03,29,8.10
2014,10,20,03,30,8.10
2014,10,20,03,31,11.30
2014,10,20,03,32,12.90
2014,10,20,03,33,11.30
2014,10,20,03,34,9.60
2014,10,20,03,35,8.10
2014,10,20,03,36,9.60
2014,10,20,03,37,6.40
2014,10,20,03,38,6.40
2014,10,20,03,39,8.10
2014,10,20,03,40,8.10
2014,10,20,03,41,3.20
2014,10,20,03,42,8.10
2014,10,20,03,43,8.10
2014,10,20,03,44,6.40
2014,10,20,03,45,3.20
2014,10,20,03,46,6.40
2014,10,20,03,47,6.40
2014,10,20,03,48,3.20
2014,10,20,03,49,3.20
2014,10,20,03,50,3.20
2014,10,20,03,51,6.40
2014,10,20,03,52,6.40
2014,10,20,03,53,8.10
2014,10,20,03,54,4.80
2014,10,20,03,55,6.40
2014,10,20,03,56,1.60
2014,10,20,03,57,1.60
2014,10,20,03,58,3.20
2014,10,20,03,59,3.20
2014,10,20,04,00,1.60
2014,10,20,04,01,6.40
2014,10,20,04,02,4.80
2014,10,20,04,03,3.20
2014,10,20,04,04,4.80
2014,10,20,04,05,3.20
2014,10,20,04,06,3.20
2014,10,20,04,07,3.20
2014,10,20,04,08,3.20
2014,10,20,04,09,3.20
2014,10,20,04,10,3.20
2014,10,20,04,11,4.80
2014,10,20,04,13,1.60
2014,10,20,04,14,1.60
2014,10,20,04,15,4.80
2014,10,20,04,16,3.20
2014,10,20,04,17,1.60
2014,10,20,04,18,1.60
2014,10,20,04,19,1.60
2014,10,20,04,20,4.80
2014,10,20,04,21,4.80
2014,10,20,04,22,3.20
2014,10,20,04,23,3.20
2014,10,20,04,24,4.80
2014,10,20,04,25,1.60
2014,10,20,04,26,1.60
2014,10,20,04,27,1.60
2014,10,20,04,28,1.60
2014,10,20,04,29,3.20
2014,10,20,04,30,1.60
2014,10,20,04,31,3.20
2014,10,20,04,32,3.20
2014,10,20,04,33,3.20
2014,10,20,04,34,3.20
2014,10,20,04,35,1.60
2014,10,20,04,37,1.60
2014,10,20,04,38,1.60
2014,10,20,04,39,1.60
2014,10,20,04,43,1.60
2014,10,20,04,44,1.60
2014,10,20,04,50,1.60
2014,10,20,04,51,3.20
2014,10,20,04,52,3.20
2014,10,20,04,53,3.20
2014,10,20,04,54,4.80
2014,10,20,04,55,4.80
2014,10,20,04,56,3.20
2014,10,20,04,57,3.20
2014,10,20,04,58,4.80
2014,10,20,04,59,3.20
2014,10,20,05,00,3.20
2014,10,20,05,01,4.80
2014,10,20,05,02,4.80
2014,10,20,05,03,4.80
2014,10,20,05,04,3.20
2014,10,20,05,05,3.20
2014,10,20,05,06,4.80
2014,10,20,05,07,8.10
2014,10,20,05,08,8.10
2014,10,20,05,09,6.40
2014,10,20,05,10,4.80
2014,10,20,05,11,8.10
2014,10,20,05,12,6.40
2014,10,20,05,13,9.60
2014,10,20,05,14,6.40
2014,10,20,05,15,3.20
2014,10,20,05,16,8.10
2014,10,20,05,17,8.10
2014,10,20,05,18,4.80
2014,10,20,05,19,4.80
2014,10,20,05,23,1.60
2014,10,20,05,24,1.60
2014,10,20,05,27,3.20
2014,10,20,05,28,3.20
2014,10,20,05,29,1.60
2014,10,20,05,30,4.80
2014,10,20,05,31,4.80
2014,10,20,05,32,3.20
2014,10,20,05,33,4.80
2014,10,20,05,34,4.80
2014,10,20,05,35,1.60
2014,10,20,05,39,1.60
2014,10,20,05,40,1.60
2014,10,20,05,42,1.60
2014,10,20,05,46,1.60
2014,10,20,05,47,1.60
2014,10,20,05,48,3.20
2014,10,20,05,49,3.20
2014,10,20,05,50,1.60
2014,10,20,06,17,1.60
2014,10,20,06,18,1.60
2014,10,20,06,19,1.60
2014,10,20,06,20,1.60
2014,10,20,06,22,1.60
2014,10,20,06,26,1.60
2014,10,20,06,27,3.20
2014,10,20,06,28,3.20
2014,10,20,06,29,1.60
2014,10,20,06,39,1.60
2014,10,20,06,40,1.60
2014,10,20,06,41,1.60
2014,10,20,06,42,1.60
2014,10,20,06,43,1.60
2014,10,20,06,44,1.60
2014,10,20,06,45,1.60
2014,10,20,06,46,3.20
2014,10,20,06,47,3.20
2014,10,20,06,48,3.20
2014,10,20,06,49,1.60
2014,10,20,06,50,1.60
2014,10,20,06,51,1.60
2014,10,20,06,52,4.80
2014,10,20,06,53,1.60
2014,10,20,06,54,3.20
2014,10,20,06,55,3.20
2014,10,20,06,56,3.20
2014,10,20,06,57,1.60
2014,10,20,06,58,1.60
2014,10,20,06,59,1.60
2014,10,20,07,00,1.60
2014,10,20,07,01,1.60
2014,10,20,07,02,1.60
2014,10,20,07,03,3.20
2014,10,20,07,04,1.60
2014,10,20,07,05,1.60
2014,10,20,07,07,3.20
2014,10,20,07,08,3.20
2014,10,20,07,09,4.80
2014,10,20,07,10,3.20
2014,10,20,07,11,4.80
2014,10,20,07,12,3.20
2014,10,20,07,13,1.60
2014,10,20,07,14,4.80
2014,10,20,07,15,3.20
2014,10,20,07,16,6.40
2014,10,20,07,17,6.40
2014,10,20,07,18,3.20
2014,10,20,07,19,3.20
2014,10,20,07,20,4.80
2014,10,20,07,21,3.20
2014,10,20,07,22,3.20
2014,10,20,07,23,4.80
2014,10,20,07,24,1.60
2014,10,20,07,25,3.20
2014,10,20,07,26,1.60
2014,10,20,07,27,1.60
2014,10,20,07,28,3.20
2014,10,20,07,29,4.80
2014,10,20,07,30,3.20
2014,10,20,07,31,3.20
2014,10,20,07,32,3.20
2014,10,20,07,33,1.60
2014,10,20,07,35,1.60
2014,10,20,07,37,1.60
2014,10,20,07,38,1.60
2014,10,20,07,40,1.60
2014,10,20,07,41,1.60
2014,10,20,07,42,1.60
2014,10,20,07,43,1.60
2014,10,20,07,44,3.20
2014,10,20,07,45,1.60
2014,10,20,07,47,1.60
2014,10,20,07,48,3.20
2014,10,20,07,49,3.20
2014,10,20,07,50,3.20
2014,10,20,07,51,3.20
2014,10,20,07,52,4.80
2014,10,20,07,53,4.80
2014,10,20,07,54,4.80
2014,10,20,07,55,4.80
2014,10,20,07,56,4.80
2014,10,20,07,57,3.20
2014,10,20,07,58,1.60
2014,10,20,07,59,1.60
2014,10,20,08,00,3.20
2014,10,20,08,01,3.20
2014,10,20,08,07,1.60
2014,10,20,08,08,1.60
2014,10,20,08,11,1.60
2014,10,20,08,12,1.60
2014,10,20,08,15,1.60
2014,10,20,08,16,1.60
2014,10,20,08,21,1.60
2014,10,20,08,22,3.20
2014,10,20,08,23,1.60
2014,10,20,08,34,1.60
2014,10,20,08,35,1.60
2014,10,20,08,36,1.60
2014,10,20,08,37,1.60
2014,10,20,08,38,3.20
2014,10,20,08,39,1.60
2014,10,20,08,41,3.20
2014,10,20,08,42,4.80
2014,10,20,08,43,1.60
2014,10,20,08,44,1.60
2014,10,20,08,45,1.60
2014,10,20,08,46,1.60
2014,10,20,08,47,1.60
2014,10,20,08,49,1.60
2014,10,20,08,50,1.60
2014,10,20,08,51,1.60
2014,10,20,08,52,3.20
2014,10,20,08,53,3.20
2014,10,20,08,54,1.60
2014,10,20,08,55,1.60
2014,10,20,08,56,8.10
2014,10,20,08,57,9.60
2014,10,20,08,58,8.10
2014,10,20,08,59,8.10
2014,10,20,09,00,8.10
2014,10,20,09,01,8.10
2014,10,20,09,02,3.20
2014,10,20,09,03,3.20
2014,10,20,09,04,1.60
2014,10,20,09,05,1.60
2014,10,20,09,06,1.60
2014,10,20,09,10,3.20
2014,10,20,09,11,3.20
2014,10,20,09,13,1.60
2014,10,20,09,14,1.60
2014,10,20,09,15,8.10
2014,10,20,09,16,8.10
2014,10,20,09,17,6.40
2014,10,20,09,18,6.40
2014,10,20,09,19,8.10
2014,10,20,09,20,3.20
2014,10,20,09,21,6.40
2014,10,20,09,22,3.20
2014,10,20,09,23,6.40
2014,10,20,09,24,1.60
2014,10,20,09,25,1.60
2014,10,20,09,26,6.40
2014,10,20,09,27,6.40
2014,10,20,09,28,1.60
2014,10,20,09,33,6.40
2014,10,20,09,34,8.10
2014,10,20,09,35,6.40
2014,10,20,09,36,3.20
2014,10,20,09,37,1.60
2014,10,20,09,38,1.60
2014,10,20,09,40,6.40
2014,10,20,09,41,8.10
2014,10,20,09,42,6.40
2014,10,20,09,43,3.20
2014,10,20,09,44,1.60
2014,10,20,09,48,1.60
2014,10,20,09,49,3.20
2014,10,20,09,50,1.60
2014,10,20,09,51,3.20
2014,10,20,09,52,3.20
2014,10,20,09,53,3.20
2014,10,20,09,54,8.10
2014,10,20,09,55,9.60
2014,10,20,09,56,8.10
2014,10,20,09,57,6.40
2014,10,20,09,58,3.20
2014,10,20,09,59,3.20
2014,10,20,10,00,1.60
2014,10,20,10,01,3.20
2014,10,20,10,02,8.10
2014,10,20,10,03,8.10
2014,10,20,10,04,6.40
2014,10,20,10,05,8.10
2014,10,20,10,06,8.10
2014,10,20,10,07,1.60
2014,10,20,10,08,3.20
2014,10,20,10,09,8.10
2014,10,20,10,14,3.20
2014,10,20,10,15,1.60
2014,10,20,10,16,3.20
2014,10,20,10,17,3.20
2014,10,20,10,18,1.60
2014,10,20,10,20,8.10
2014,10,20,10,21,11.30
2014,10,20,10,22,9.60
2014,10,20,10,23,6.40
2014,10,20,10,24,8.10
2014,10,20,10,25,6.40
2014,10,20,10,26,1.60
2014,10,20,10,29,3.20
2014,10,20,10,30,3.20
2014,10,20,10,31,6.40
2014,10,20,10,32,8.10
2014,10,20,10,33,6.40
2014,10,20,10,34,8.10
2014,10,20,10,35,9.60
2014,10,20,10,36,11.30
2014,10,20,10,37,12.90
2014,10,20,10,38,11.30
2014,10,20,10,39,12.90
2014,10,20,10,40,9.60
2014,10,20,10,41,8.10
2014,10,20,10,42,9.60
2014,10,20,10,43,11.30
2014,10,20,10,44,9.60
2014,10,20,10,45,9.60
2014,10,20,10,46,8.10
2014,10,20,10,47,6.40
2014,10,20,10,48,6.40
2014,10,20,10,49,6.40
2014,10,20,10,50,9.60
2014,10,20,10,51,9.60
2014,10,20,10,52,11.30
2014,10,20,10,53,12.90
2014,10,20,10,54,12.90
2014,10,20,10,55,12.90
2014,10,20,10,56,11.30
2014,10,20,10,57,9.60
2014,10,20,10,58,8.10
2014,10,20,10,59,6.40
2014,10,20,11,00,12.90
2014,10,20,11,01,12.90
2014,10,20,11,02,12.90
2014,10,20,11,03,12.90
2014,10,20,11,04,11.30
2014,10,20,11,05,9.60
2014,10,20,11,06,8.10
2014,10,20,11,07,9.60
2014,10,20,11,08,9.60
2014,10,20,11,09,9.60
2014,10,20,11,10,9.60
2014,10,20,11,11,8.10
2014,10,20,11,12,9.60
2014,10,20,11,13,8.10
2014,10,20,11,14,8.10
2014,10,20,11,15,9.60
2014,10,20,11,16,6.40
2014,10,20,11,17,3.20
2014,10,20,11,18,11.30
2014,10,20,11,19,12.90
2014,10,20,11,20,14.50
2014,10,20,11,21,14.50
2014,10,20,11,22,11.30
2014,10,20,11,23,12.90
2014,10,20,11,24,17.70
2014,10,20,11,25,16.10
2014,10,20,11,26,12.90
2014,10,20,11,27,12.90
2014,10,20,11,28,12.90
2014,10,20,11,29,12.90
2014,10,20,11,30,9.60
2014,10,20,11,31,11.30
2014,10,20,11,32,9.60
2014,10,20,11,33,12.90
2014,10,20,11,34,12.90
2014,10,20,11,35,14.50
2014,10,20,11,36,11.30
2014,10,20,11,37,14.50
2014,10,20,11,38,14.50
2014,10,20,11,39,14.50
2014,10,20,11,40,16.10
2014,10,20,11,41,9.60
2014,10,20,11,42,11.30
2014,10,20,11,43,9.60
2014,10,20,11,44,14.50
2014,10,20,11,45,9.60
2014,10,20,11,46,11.30
2014,10,20,11,47,11.30
2014,10,20,11,48,8.10
2014,10,20,11,49,16.10
2014,10,20,11,50,14.50
2014,10,20,11,51,14.50
2014,10,20,11,52,17.70
2014,10,20,11,53,14.50
2014,10,20,11,54,11.30
2014,10,20,11,55,9.60
2014,10,20,11,56,9.60
2014,10,20,11,57,6.40
2014,10,20,11,58,12.90
2014,10,20,11,59,14.50
2014,10,20,12,00,14.50
2014,10,20,12,01,14.50
2014,10,20,12,02,12.90
2014,10,20,12,03,12.90
2014,10,20,12,04,8.10
2014,10,20,12,05,9.60
2014,10,20,12,06,12.90
2014,10,20,12,07,11.30
2014,10,20,12,08,14.50
2014,10,20,12,09,12.90
2014,10,20,12,10,12.90
2014,10,20,12,11,12.90
2014,10,20,12,12,12.90
2014,10,20,12,13,12.90
2014,10,20,12,14,11.30
2014,10,20,12,15,9.60
2014,10,20,12,16,9.60
2014,10,20,12,17,12.90
2014,10,20,12,18,11.30
2014,10,20,12,19,9.60
2014,10,20,12,20,9.60
2014,10,20,12,21,9.60
2014,10,20,12,22,9.60
2014,10,20,12,23,9.60
2014,10,20,12,24,14.50
2014,10,20,12,25,11.30
2014,10,20,12,26,11.30
2014,10,20,12,27,11.30
2014,10,20,12,28,14.50
2014,10,20,12,29,17.70
2014,10,20,12,30,12.90
2014,10,20,12,31,14.50
2014,10,20,12,32,12.90
2014,10,20,12,33,12.90
2014,10,20,12,34,11.30
2014,10,20,12,35,11.30
2014,10,20,12,36,9.60
2014,10,20,12,37,9.60
2014,10,20,12,38,12.90
2014,10,20,12,39,12.90
2014,10,20,12,40,12.90
2014,10,20,12,41,12.90
2014,10,20,12,42,14.50
2014,10,20,12,43,11.30
2014,10,20,12,44,12.90
2014,10,20,12,45,14.50
2014,10,20,12,46,12.90
2014,10,20,12,47,12.90
2014,10,20,12,48,19.30
2014,10,20,12,49,16.10
2014,10,20,12,50,20.90
2014,10,20,12,51,19.30
2014,10,20,12,52,12.90
2014,10,20,12,53,16.10
2014,10,20,12,54,8.10
2014,10,20,12,55,17.70
2014,10,20,12,56,12.90
2014,10,20,12,57,12.90
2014,10,20,12,58,16.10
2014,10,20,12,59,16.10
2014,10,20,13,00,14.50
2014,10,20,13,01,14.50
2014,10,20,13,02,16.10
2014,10,20,13,03,14.50
2014,10,20,13,04,11.30
2014,10,20,13,05,12.90
2014,10,20,13,06,20.90
2014,10,20,13,07,14.50
2014,10,20,13,08,12.90
2014,10,20,13,09,16.10
2014,10,20,13,10,16.10
2014,10,20,13,11,11.30
2014,10,20,13,12,11.30
2014,10,20,13,13,11.30
2014,10,20,13,14,12.90
2014,10,20,13,15,14.50
2014,10,20,13,16,19.30
2014,10,20,13,17,19.30
2014,10,20,13,18,17.70
2014,10,20,13,19,14.50
2014,10,20,13,20,17.70
2014,10,20,13,21,11.30
2014,10,20,13,22,12.90
2014,10,20,13,23,11.30
2014,10,20,13,24,11.30
2014,10,20,13,25,16.10
2014,10,20,13,26,11.30
2014,10,20,13,27,12.90
2014,10,20,13,28,11.30
2014,10,20,13,29,12.90
2014,10,20,13,30,12.90
2014,10,20,13,31,8.10
2014,10,20,13,32,8.10
2014,10,20,13,33,11.30
2014,10,20,13,34,11.30
2014,10,20,13,35,8.10
2014,10,20,13,36,8.10
2014,10,20,13,37,11.30
2014,10,20,13,38,11.30
2014,10,20,13,39,11.30
2014,10,20,13,40,11.30
2014,10,20,13,41,11.30
2014,10,20,13,42,14.50
2014,10,20,13,43,14.50
2014,10,20,13,44,16.10
2014,10,20,13,45,17.70
2014,10,20,13,46,16.10
2014,10,20,13,47,17.70
2014,10,20,13,48,16.10
2014,10,20,13,49,12.90
2014,10,20,13,50,12.90
2014,10,20,13,51,12.90
2014,10,20,13,52,16.10
2014,10,20,13,53,11.30
2014,10,20,13,54,14.50
2014,10,20,13,55,14.50
2014,10,20,13,56,14.50
2014,10,20,13,57,11.30
2014,10,20,13,58,11.30
2014,10,20,13,59,11.30
2014,10,20,14,00,11.30
2014,10,20,14,01,14.50
2014,10,20,14,02,8.10
2014,10,20,14,03,12.90
2014,10,20,14,04,12.90
2014,10,20,14,05,11.30
2014,10,20,14,06,12.90
2014,10,20,14,07,12.90
2014,10,20,14,08,12.90
2014,10,20,14,09,9.60
2014,10,20,14,10,9.60
2014,10,20,14,11,8.10
2014,10,20,14,12,8.10
2014,10,20,14,13,16.10
2014,10,20,14,14,9.60
2014,10,20,14,15,12.90
2014,10,20,14,16,12.90
2014,10,20,14,17,12.90
2014,10,20,14,18,11.30
2014,10,20,14,19,12.90
2014,10,20,14,20,12.90
2014,10,20,14,21,11.30
2014,10,20,14,22,8.10
2014,10,20,14,23,12.90
2014,10,20,14,24,14.50
2014,10,20,14,25,14.50
2014,10,20,14,26,17.70
2014,10,20,14,27,14.50
2014,10,20,14,28,17.70
2014,10,20,14,29,17.70
2014,10,20,14,30,19.30
2014,10,20,14,31,16.10
2014,10,20,14,32,12.90
2014,10,20,14,33,19.30
2014,10,20,14,34,17.70
2014,10,20,14,35,17.70
2014,10,20,14,36,14.50
2014,10,20,14,37,16.10
2014,10,20,14,38,16.10
2014,10,20,14,39,6.40
2014,10,20,14,40,11.30
2014,10,20,14,41,11.30
2014,10,20,14,42,9.60
2014,10,20,14,43,6.40
2014,10,20,14,44,9.60
2014,10,20,14,45,11.30
2014,10,20,14,46,11.30
2014,10,20,14,47,11.30
2014,10,20,14,48,14.50
2014,10,20,14,49,8.10
2014,10,20,14,50,8.10
2014,10,20,14,51,9.60
2014,10,20,14,52,1.60
2014,10,20,14,53,6.40
2014,10,20,14,54,8.10
2014,10,20,14,55,6.40
2014,10,20,14,56,6.40
2014,10,20,14,57,9.60
2014,10,20,14,58,8.10
2014,10,20,14,59,9.60
2014,10,20,15,00,9.60
2014,10,20,15,01,9.60
2014,10,20,15,02,8.10
2014,10,20,15,03,8.10
2014,10,20,15,04,9.60
2014,10,20,15,05,8.10
2014,10,20,15,06,9.60
2014,10,20,15,07,9.60
2014,10,20,15,08,8.10
2014,10,20,15,09,8.10
2014,10,20,15,10,6.40
2014,10,20,15,11,3.20
2014,10,20,15,12,6.40
2014,10,20,15,13,6.40
2014,10,20,15,14,3.20
2014,10,20,15,15,3.20
2014,10,20,15,16,3.20
2014,10,20,15,17,3.20
2014,10,20,15,18,3.20
2014,10,20,15,19,3.20
2014,10,20,15,20,3.20
2014,10,20,15,21,6.40
2014,10,20,15,22,6.40
2014,10,20,15,23,8.10
2014,10,20,15,24,1.60
2014,10,20,15,26,1.60
2014,10,20,15,29,1.60
2014,10,20,15,30,3.20
2014,10,20,15,31,3.20
2014,10,20,15,33,1.60
2014,10,20,15,34,1.60
2014,10,20,15,35,1.60
2014,10,20,15,36,3.20
2014,10,20,15,37,1.60
2014,10,20,15,39,1.60
2014,10,20,15,40,3.20
2014,10,20,15,41,1.60
2014,10,20,15,42,3.20
2014,10,20,15,43,3.20
2014,10,20,15,44,1.60
2014,10,20,15,45,3.20
2014,10,20,15,46,1.60
2014,10,20,15,47,3.20
2014,10,20,15,48,3.20
2014,10,20,15,49,3.20
2014,10,20,15,50,1.60
2014,10,20,15,53,1.60
2014,10,20,15,56,1.60
2014,10,20,15,57,3.20
2014,10,20,15,58,3.20
2014,10,20,15,59,1.60
2014,10,20,16,00,3.20
2014,10,20,16,01,1.60
2014,10,20,16,02,1.60
2014,10,20,16,03,3.20
2014,10,20,16,04,3.20
2014,10,20,16,05,3.20
2014,10,20,16,06,1.60
2014,10,20,16,07,1.60
2014,10,20,16,08,3.20
2014,10,20,16,09,3.20
2014,10,20,16,10,1.60
2014,10,20,16,11,3.20
2014,10,20,16,12,3.20
2014,10,20,16,13,1.60
2014,10,20,16,15,1.60
2014,10,20,16,16,3.20
2014,10,20,16,19,1.60
2014,10,20,16,22,1.60
2014,10,20,16,23,3.20
2014,10,20,16,24,1.60
2014,10,20,16,26,1.60
2014,10,20,16,27,1.60
2014,10,20,16,28,3.20
2014,10,20,16,29,1.60
2014,10,20,16,30,6.40
2014,10,20,16,31,3.20
2014,10,20,16,32,6.40
2014,10,20,16,33,1.60
2014,10,20,16,34,1.60
2014,10,20,16,35,6.40
2014,10,20,16,36,6.40
2014,10,20,16,37,3.20
2014,10,20,16,38,3.20
2014,10,20,16,39,1.60
2014,10,20,16,40,1.60
2014,10,20,16,43,1.60
2014,10,20,16,44,1.60
2014,10,20,16,45,3.20
2014,10,20,16,46,6.40
2014,10,20,16,47,6.40
2014,10,20,16,48,1.60
2014,10,20,17,14,1.60
2014,10,20,17,20,1.60
2014,10,20,17,25,1.60
2014,10,20,17,26,1.60
2014,10,20,17,27,3.20
2014,10,20,17,28,1.60
2014,10,20,17,29,1.60
2014,10,20,17,30,1.60
2014,10,20,17,31,1.60
2014,10,20,17,32,3.20
2014,10,20,17,33,3.20
2014,10,20,17,34,3.20
2014,10,20,17,35,6.40
2014,10,20,17,36,3.20
2014,10,20,17,37,1.60
2014,10,20,17,38,6.40
2014,10,20,17,39,6.40
2014,10,20,17,40,3.20
2014,10,20,17,41,3.20
2014,10,20,17,42,1.60
2014,10,20,17,43,3.20
2014,10,20,17,44,1.60
2014,10,20,17,45,1.60
2014,10,20,17,46,1.60
2014,10,20,17,47,1.60
2014,10,20,17,48,3.20
2014,10,20,17,49,6.40
2014,10,20,17,50,3.20
2014,10,20,17,51,3.20
2014,10,20,17,52,6.40
2014,10,20,17,53,8.10
2014,10,20,17,54,6.40
2014,10,20,17,55,6.40
2014,10,20,17,56,3.20
2014,10,20,17,57,6.40
2014,10,20,17,58,8.10
2014,10,20,17,59,8.10
2014,10,20,18,00,8.10
2014,10,20,18,01,8.10
2014,10,20,18,02,8.10
2014,10,20,18,03,8.10
2014,10,20,18,04,12.90
2014,10,20,18,05,11.30
2014,10,20,18,06,4.80
2014,10,20,18,07,3.20
2014,10,20,18,08,6.40
2014,10,20,18,09,4.80
2014,10,20,18,10,6.40
2014,10,20,18,11,8.10
2014,10,20,18,12,9.60
2014,10,20,18,13,3.20
2014,10,20,18,15,3.20
2014,10,20,18,16,3.20
2014,10,20,18,17,4.80
2014,10,20,18,18,4.80
2014,10,20,18,19,4.80
2014,10,20,18,20,4.80
2014,10,20,18,21,6.40
2014,10,20,18,22,3.20
2014,10,20,18,23,1.60
2014,10,20,18,24,3.20
2014,10,20,18,25,3.20
2014,10,20,18,27,1.60
2014,10,20,18,42,1.60
2014,10,20,18,43,3.20
2014,10,20,18,44,3.20
2014,10,20,18,45,1.60
2014,10,20,18,46,3.20
2014,10,20,18,47,3.20
2014,10,20,18,48,3.20
2014,10,20,18,49,3.20
2014,10,20,18,50,4.80
2014,10,20,18,51,3.20
2014,10,20,18,52,4.80
2014,10,20,18,53,8.10
2014,10,20,18,54,6.40
2014,10,20,18,55,4.80
2014,10,20,18,56,3.20
2014,10,20,18,57,3.20
2014,10,20,18,58,1.60
2014,10,20,18,59,1.60
2014,10,20,19,02,1.60
2014,10,20,19,03,3.20
2014,10,20,19,04,1.60
2014,10,20,19,07,1.60
2014,10,20,19,48,1.60
2014,10,20,19,49,3.20
2014,10,20,19,50,3.20
2014,10,20,19,51,3.20
2014,10,20,19,52,3.20
2014,10,20,19,53,1.60
2014,10,20,19,54,1.60
2014,10,20,19,55,1.60
2014,10,20,19,56,1.60
2014,10,20,19,58,1.60
2014,10,20,19,59,1.60
2014,10,20,20,00,3.20
2014,10,20,20,01,1.60
2014,10,20,20,02,3.20
2014,10,20,20,03,3.20
2014,10,20,20,04,3.20
2014,10,20,20,05,3.20
2014,10,20,20,06,3.20
2014,10,20,20,07,3.20
2014,10,20,20,08,3.20
2014,10,20,20,09,4.80
2014,10,20,20,10,3.20
2014,10,20,20,11,1.60
2014,10,20,20,12,4.80
2014,10,20,20,13,3.20
2014,10,20,20,14,3.20
2014,10,20,20,15,3.20
2014,10,20,20,16,3.20
2014,10,20,20,17,4.80
2014,10,20,20,18,3.20
2014,10,20,20,19,4.80
2014,10,20,20,20,3.20
2014,10,20,20,21,1.60
2014,10,20,20,22,4.80
2014,10,20,20,23,1.60
2014,10,20,20,24,3.20
2014,10,20,20,25,3.20
2014,10,20,20,27,1.60
2014,10,20,20,29,4.80
2014,10,20,20,30,3.20
2014,10,20,20,31,4.80
2014,10,20,20,33,1.60
2014,10,20,20,34,1.60
2014,10,20,20,35,1.60
2014,10,20,20,36,4.80
2014,10,20,20,37,3.20
2014,10,20,20,38,4.80
2014,10,20,20,39,1.60
2014,10,20,20,40,1.60
2014,10,20,20,41,3.20
2014,10,20,20,42,1.60
2014,10,20,20,43,3.20
2014,10,20,20,44,3.20
2014,10,20,20,45,1.60
2014,10,20,20,46,1.60
2014,10,20,20,47,1.60
2014,10,20,20,49,1.60
2014,10,20,20,50,3.20
2014,10,20,20,51,3.20
2014,10,20,20,52,3.20
2014,10,20,20,53,3.20
2014,10,20,20,54,3.20
2014,10,20,20,55,3.20
2014,10,20,20,56,3.20
2014,10,20,20,57,1.60
2014,10,20,20,58,3.20
2014,10,20,20,59,4.80
2014,10,20,21,00,3.20
2014,10,20,21,01,4.80
2014,10,20,21,02,4.80
2014,10,20,21,03,4.80
2014,10,20,21,04,3.20
2014,10,20,21,05,1.60
2014,10,20,21,06,3.20
2014,10,20,21,09,1.60
2014,10,20,21,10,1.60
2014,10,20,21,12,1.60
2014,10,20,21,14,1.60
2014,10,20,21,15,1.60
2014,10,20,21,16,1.60
2014,10,20,21,17,3.20
2014,10,20,21,18,3.20
2014,10,20,21,19,4.80
2014,10,20,21,20,4.80
2014,10,20,21,21,4.80
2014,10,20,21,22,4.80
2014,10,20,21,23,6.40
2014,10,20,21,24,6.40
2014,10,20,21,25,8.10
2014,10,20,21,26,3.20
2014,10,20,21,27,3.20
2014,10,20,21,28,6.40
2014,10,20,21,29,3.20
2014,10,20,21,30,3.20
2014,10,20,21,31,6.40
2014,10,20,21,32,6.40
2014,10,20,21,33,8.10
2014,10,20,21,34,6.40
2014,10,20,21,35,8.10
2014,10,20,21,36,8.10
2014,10,20,21,37,3.20
2014,10,20,21,38,6.40
2014,10,20,21,39,6.40
2014,10,20,21,40,1.60
2014,10,20,21,41,1.60
2014,10,20,21,42,6.40
2014,10,20,21,43,8.10
2014,10,20,21,44,6.40
2014,10,20,21,45,3.20
2014,10,20,21,46,1.60
2014,10,20,21,47,3.20
2014,10,20,21,48,3.20
2014,10,20,21,49,6.40
2014,10,20,21,50,3.20
2014,10,20,21,51,6.40
2014,10,20,21,52,8.10
2014,10,20,21,53,8.10
2014,10,20,21,54,8.10
2014,10,20,21,55,8.10
2014,10,20,21,56,8.10
2014,10,20,21,57,8.10
2014,10,20,21,58,8.10
2014,10,20,21,59,8.10
2014,10,20,22,00,8.10
2014,10,20,22,01,8.10
2014,10,20,22,02,6.40
2014,10,20,22,03,6.40
2014,10,20,22,04,6.40
2014,10,20,22,05,6.40
2014,10,20,22,06,9.60
2014,10,20,22,07,8.10
2014,10,20,22,08,6.40
2014,10,20,22,09,3.20
2014,10,20,22,10,3.20
2014,10,20,22,11,3.20
2014,10,20,22,12,3.20
2014,10,20,22,13,6.40
2014,10,20,22,14,8.10
2014,10,20,22,15,6.40
2014,10,20,22,16,6.40
2014,10,20,22,17,3.20
2014,10,20,22,18,6.40
2014,10,20,22,19,3.20
2014,10,20,22,20,6.40
2014,10,20,22,21,1.60
2014,10,20,22,22,1.60
2014,10,20,22,23,1.60
2014,10,20,22,24,3.20
2014,10,20,22,25,1.60
2014,10,20,22,26,1.60
2014,10,20,22,27,6.40
2014,10,20,22,28,6.40
2014,10,20,22,29,6.40
2014,10,20,22,30,3.20
2014,10,20,22,31,1.60
2014,10,20,22,33,1.60
2014,10,20,22,34,3.20
2014,10,20,22,35,3.20
2014,10,20,22,36,6.40
2014,10,20,22,37,3.20
2014,10,20,22,38,3.20
2014,10,20,22,39,6.40
2014,10,20,22,40,8.10
2014,10,20,22,41,8.10
2014,10,20,22,42,9.60
2014,10,20,22,43,9.60
2014,10,20,22,44,9.60
2014,10,20,22,45,8.10
2014,10,20,22,46,6.40
2014,10,20,22,47,8.10
2014,10,20,22,48,8.10
2014,10,20,22,49,9.60
2014,10,20,22,50,8.10
2014,10,20,22,51,6.40
2014,10,20,22,52,8.10
2014,10,20,22,53,3.20